Weather History for PAJC - May, 2013

Change the Weather History Date:

Sunday, May 26, 2013

  Actual Average Record
Temperature  
Mean Temperature 40 °F -  
Max Temperature 42 °F - - ()
Min Temperature 39 °F - - ()
Degree Days  
Heating Degree Days 24    
Moisture  
Dew Point 37 °F    
Average Humidity 84    
Maximum Humidity 93    
Minimum Humidity 81    
Precipitation  
Precipitation 0.13 in - - ()
Sea Level Pressure  
Sea Level Pressure 29.73 in    
Wind  
Wind Speed 9 mph (East)    
Max Wind Speed 20 mph    
Max Gust Speed 26 mph    
Visibility 8 miles    
Events      
T = Trace of Precipitation, MM = Missing Value Source: NWS Daily Summary

Daily Weather History Graph

Daily Weather History Graph

Search for Another Location

Airport or City:

Trip Planner

Search our weather history database for the weather conditions in past years. The results will help you decide how hot, cold, wet, or windy it might be!

Date:

Astronomy

May. 26, 2013 Rise Set
Actual Time 6:00 AM AKDT 11:02 PM AKDT
Civil Twilight 5:03 AM AKDT 11:58 PM AKDT
Nautical Twilight 3:11 AM AKDT 1:56 AM AKDT
Astronomical Twilight Sun does not set Sun does not set
Moon No Moon Rise 7:46 AM AKDT (5/26)
Length of Visible Light 18h 54m
Length of Day
17h 02m
Waning Gibbous, 96% of the Moon is Illuminated
May 26
Waning Gibbous
May 31
Last Quarter
Jun 8
New
Jun 16
First Quarter
Jun 23
Full

Hourly Weather History & Observations

Time (AKDT) Temp. Windchill Dew Point Humidity Pressure Visibility Wind Dir Wind Speed Gust Speed Precip Events Conditions
12:16 AM 39.2 °F 33.6 °F 35.6 °F 87% 29.73 in 2.5 mi ENE 8.1 mph - N/A   Overcast
12:36 AM 39.2 °F 35.0 °F 35.6 °F 87% 29.73 in 2.0 mi East 5.8 mph - 0.02 in   Overcast
12:56 AM 39.2 °F 33.6 °F 35.6 °F 87% 29.73 in 2.5 mi East 8.1 mph - 0.04 in   Overcast
1:16 AM 39.2 °F 33.6 °F 37.4 °F 93% 29.73 in 3.0 mi East 8.1 mph - 0.02 in   Overcast
1:36 AM 39.2 °F 33.0 °F 37.4 °F 93% 29.73 in 3.0 mi East 9.2 mph - 0.04 in   Overcast
1:56 AM 39.2 °F 34.2 °F 37.4 °F 93% 29.73 in 3.0 mi East 6.9 mph - 0.06 in   Overcast
2:16 AM 39.2 °F 34.2 °F 35.6 °F 87% 29.72 in 3.0 mi East 6.9 mph - 0.01 in   Overcast
2:36 AM 39.2 °F 34.2 °F 37.4 °F 93% 29.72 in 8.0 mi East 6.9 mph - 0.01 in   Overcast
2:56 AM 41.0 °F 35.2 °F 35.6 °F 81% 29.72 in 10.0 mi ESE 9.2 mph 16.1 mph 0.01 in   Overcast
3:16 AM 41.0 °F 38.0 °F 35.6 °F 81% 29.72 in 10.0 mi East 4.6 mph - N/A   Overcast
3:36 AM 41.0 °F 37.1 °F 37.4 °F 87% 29.72 in 10.0 mi East 5.8 mph 16.1 mph N/A   Overcast
3:56 AM 41.0 °F 38.0 °F 35.6 °F 81% 29.72 in 10.0 mi East 4.6 mph - N/A   Overcast
4:16 AM 41.0 °F 35.2 °F 37.4 °F 87% 29.71 in 10.0 mi East 9.2 mph - N/A   Overcast
4:36 AM 41.0 °F 35.8 °F 37.4 °F 87% 29.71 in 10.0 mi East 8.1 mph - N/A   Overcast
4:56 AM 41.0 °F 35.8 °F 37.4 °F 87% 29.71 in 6.0 mi East 8.1 mph - N/A   Overcast
5:16 AM 41.0 °F 37.1 °F 37.4 °F 87% 29.71 in 6.0 mi East 5.8 mph - N/A   Overcast
5:36 AM 39.2 °F 34.2 °F 37.4 °F 93% 29.71 in 5.0 mi East 6.9 mph - N/A   Overcast
5:56 AM 41.0 °F 34.7 °F 37.4 °F 87% 29.71 in 7.0 mi ENE 10.4 mph - N/A   Overcast
6:16 AM 41.0 °F 35.2 °F 37.4 °F 87% 29.71 in 8.0 mi East 9.2 mph - N/A   Overcast
6:36 AM 41.0 °F 36.4 °F 37.4 °F 87% 29.71 in 10.0 mi East 6.9 mph 18.4 mph N/A   Overcast
6:56 AM 41.0 °F 34.7 °F 37.4 °F 87% 29.71 in 5.0 mi ENE 10.4 mph 21.9 mph N/A   Overcast
7:16 AM 41.0 °F 34.7 °F 37.4 °F 87% 29.71 in 5.0 mi ENE 10.4 mph - N/A   Overcast
7:36 AM 41.0 °F 35.8 °F 37.4 °F 87% 29.71 in 5.0 mi NE 8.1 mph - N/A   Overcast
7:56 AM 41.0 °F 34.3 °F 37.4 °F 87% 29.71 in 5.0 mi ENE 11.5 mph - N/A   Overcast
8:16 AM 41.0 °F 33.9 °F 37.4 °F 87% 29.72 in 5.0 mi ENE 12.7 mph - N/A   Overcast
8:36 AM 41.0 °F 34.7 °F 37.4 °F 87% 29.72 in 9.0 mi ENE 10.4 mph 19.6 mph N/A   Overcast
8:56 AM 41.0 °F 34.7 °F 37.4 °F 87% 29.72 in 10.0 mi ENE 10.4 mph 17.3 mph N/A   Overcast
9:16 AM 41.0 °F 35.2 °F 37.4 °F 87% 29.72 in 10.0 mi ENE 9.2 mph - N/A   Overcast
9:36 AM 41.0 °F 35.2 °F 35.6 °F 81% 29.72 in 9.0 mi NE 9.2 mph 17.3 mph N/A   Overcast
9:56 AM 41.0 °F 34.3 °F 37.4 °F 87% 29.72 in 7.0 mi ENE 11.5 mph 20.7 mph N/A   Overcast
10:16 AM 41.0 °F 34.7 °F 37.4 °F 87% 29.72 in 6.0 mi ENE 10.4 mph 24.2 mph N/A   Overcast
10:36 AM 41.0 °F 34.7 °F 35.6 °F 81% 29.73 in 10.0 mi ENE 10.4 mph 20.7 mph N/A   Overcast
10:56 AM 41.0 °F 32.5 °F 37.4 °F 87% 29.73 in 10.0 mi ENE 17.3 mph 24.2 mph N/A   Overcast
11:16 AM 42.8 °F 35.1 °F 37.4 °F 81% 29.73 in 10.0 mi ENE 16.1 mph 20.7 mph N/A   Overcast
11:36 AM 42.8 °F 35.8 °F 37.4 °F 81% 29.73 in 10.0 mi ENE 13.8 mph 23.0 mph N/A   Overcast
11:56 AM 42.8 °F 36.6 °F 37.4 °F 81% 29.72 in 10.0 mi ENE 11.5 mph 16.1 mph N/A   Overcast
12:16 PM 42.8 °F 37.0 °F 37.4 °F 81% 29.73 in 7.0 mi ENE 10.4 mph - N/A   Overcast
12:36 PM 41.0 °F 34.7 °F 37.4 °F 87% 29.73 in 8.0 mi ENE 10.4 mph 19.6 mph 0.01 in   Overcast
12:56 PM 42.8 °F 37.0 °F 37.4 °F 81% 29.73 in 6.0 mi ENE 10.4 mph 17.3 mph 0.01 in   Overcast
1:16 PM 42.8 °F 37.5 °F 37.4 °F 81% 29.73 in 5.0 mi ENE 9.2 mph 16.1 mph N/A   Overcast
1:36 PM 42.8 °F 37.0 °F 37.4 °F 81% 29.73 in 10.0 mi ENE 10.4 mph 17.3 mph 0.01 in   Overcast
1:56 PM 42.8 °F 39.3 °F 37.4 °F 81% 29.73 in 4.0 mi ENE 5.8 mph - 0.01 in   Overcast
2:16 PM 42.8 °F 40.1 °F 37.4 °F 81% 29.73 in 8.0 mi ENE 4.6 mph - N/A   Overcast
2:36 PM 41.0 °F 36.4 °F 37.4 °F 87% 29.73 in 5.0 mi NNE 6.9 mph - N/A   Overcast
2:56 PM 41.0 °F 36.4 °F 37.4 °F 87% 29.74 in 10.0 mi East 6.9 mph - N/A   Overcast
3:16 PM 41.0 °F 35.8 °F 35.6 °F 81% 29.74 in 10.0 mi East 8.1 mph 18.4 mph N/A   Overcast
3:36 PM 41.0 °F 36.4 °F 37.4 °F 87% 29.74 in 10.0 mi East 6.9 mph - N/A   Overcast
3:56 PM 42.8 °F 41.1 °F 37.4 °F 81% 29.74 in 10.0 mi East 3.5 mph - N/A   Overcast
4:16 PM 42.8 °F 38.6 °F 37.4 °F 81% 29.74 in 10.0 mi East 6.9 mph - N/A   Overcast
4:36 PM 42.8 °F 36.6 °F 37.4 °F 81% 29.74 in 10.0 mi East 11.5 mph - N/A   Overcast
4:56 PM 42.8 °F 38.0 °F 37.4 °F 81% 29.74 in 10.0 mi East 8.1 mph 17.3 mph N/A   Overcast
5:16 PM 42.8 °F 36.6 °F 37.4 °F 81% 29.74 in 10.0 mi ENE 11.5 mph 21.9 mph N/A   Overcast
5:36 PM 42.8 °F 37.0 °F 37.4 °F 81% 29.73 in 10.0 mi ENE 10.4 mph 20.7 mph N/A   Overcast
5:56 PM 42.8 °F 38.6 °F 37.4 °F 81% 29.73 in 10.0 mi ENE 6.9 mph 17.3 mph N/A   Overcast
6:16 PM 42.8 °F 37.5 °F 37.4 °F 81% 29.73 in 9.0 mi East 9.2 mph 16.1 mph N/A   Overcast
6:36 PM 42.8 °F 37.5 °F 37.4 °F 81% 29.73 in 9.0 mi East 9.2 mph - N/A   Overcast
6:56 PM 42.8 °F 38.6 °F 37.4 °F 81% 29.73 in 5.0 mi East 6.9 mph - N/A   Overcast
7:16 PM 42.8 °F 38.6 °F 37.4 °F 81% 29.74 in 10.0 mi ESE 6.9 mph 17.3 mph N/A   Overcast
7:36 PM 42.8 °F 36.2 °F 37.4 °F 81% 29.73 in 10.0 mi East 12.7 mph 18.4 mph N/A   Overcast
7:56 PM 42.8 °F 37.5 °F 37.4 °F 81% 29.73 in 10.0 mi East 9.2 mph 16.1 mph N/A   Overcast
8:16 PM 42.8 °F 37.0 °F 37.4 °F 81% 29.73 in 9.0 mi ESE 10.4 mph - N/A   Overcast
8:36 PM 42.8 °F 36.6 °F 37.4 °F 81% 29.73 in 7.0 mi East 11.5 mph 16.1 mph N/A   Overcast
8:56 PM 42.8 °F 36.2 °F 37.4 °F 81% 29.74 in 10.0 mi ENE 12.7 mph 20.7 mph N/A   Overcast
9:16 PM 42.8 °F 35.8 °F 37.4 °F 81% 29.74 in 9.0 mi East 13.8 mph 20.7 mph N/A   Overcast
9:36 PM 42.8 °F 36.2 °F 37.4 °F 81% 29.74 in 10.0 mi East 12.7 mph 18.4 mph N/A   Overcast
9:56 PM 42.8 °F 36.6 °F 37.4 °F 81% 29.74 in 10.0 mi East 11.5 mph 17.3 mph N/A   Overcast
10:16 PM 42.8 °F 35.1 °F 37.4 °F 81% 29.74 in 10.0 mi East 16.1 mph 20.7 mph N/A   Overcast
10:36 PM 42.8 °F 35.8 °F 37.4 °F 81% 29.74 in 10.0 mi East 13.8 mph 20.7 mph N/A   Overcast
10:56 PM 42.8 °F 35.4 °F 37.4 °F 81% 29.74 in 10.0 mi East 15.0 mph 23.0 mph N/A   Overcast
11:16 PM 42.8 °F 35.1 °F 37.4 °F 81% 29.74 in 10.0 mi East 16.1 mph 24.2 mph N/A   Overcast
11:36 PM 42.8 °F 34.5 °F 37.4 °F 81% 29.74 in 10.0 mi East 18.4 mph - N/A   Overcast
11:56 PM 42.8 °F 34.3 °F 37.4 °F 81% 29.74 in 10.0 mi East 19.6 mph 26.5 mph N/A   Overcast